sat.trackr.live / text

‹ back to catalog

STARLINK-5055

NORAD 54015 · 2022-125BD

PAYLOAD ACTIVE UNKNOWN

§ Identity

Operator
Country
US
Launch date
2022-10-05
Launch site
AFWTR
Launch vehicle
Mass (kg)
RCS (m²)

Purposes: comms

External: N2YO · Heavens-Above · Gunter

§ Orbital elements

Epoch: 2026-05-25T04:39:14.682816Z

Period
95.44 min
Inclination
53.2166°
Eccentricity
0.0001319
Mean motion
15.08834720 rev/d
Perigee alt
538.8 km
Apogee alt
540.7 km
Semi-major
6,917.9 km
B*
7.0327e-5
RAAN
220.5936°
Arg perigee
78.8735°
Mean anomaly
281.2405°
Rev number
20,115

§ Raw data

STARLINK-50551 54015U 22125BD  26145.19391994  .00000831  00000+0  70327-4 0  99942 54015  53.2166 220.5936 0001319  78.8735 281.2405 15.08834720201158

JSON: /api/v1/satellites/54015 · /tle

For live sub-satellite position, see the globe view (requires WebGL).

§ Visibility from observer

Set your observer location to see the next 7 days of passes ≥ 10°. The values pass through the URL so the page stays shareable.

No JS? Fill the form by hand. The geolocation button needs JavaScript.